Wind_Speed
43 44 44 44 44 45 45 45 45 45 44 44 44 43 43 42 42 40 39 38 37 36 35 35 35 35 35 36 36 37 39 44 48 52 55 55 54 52 51 50 51 51 50 49 48 46 45 43 41 40 38 38 37 36 35 33 31 29 27 25 24 23 21 21 21 18 13 12 13 11 8 8 4 1 4 4 3 8 14 15 16 20 22 26 30 32 37 37
41 42 43 44 44 45 46 46 46 46 46 46 46 45 45 45 44 43 42 41 40 39 38 37 37 37 37 38 38 38 40 43 48 52 55 56 56 54 52 52 52 52 52 51 49 47 46 44 42 41 40 39 39 38 37 35 33 31 29 28 26 25 23 23 23 20 17 15 13 11 10 9 5 1 3 3 2 6 12 13 15 17 20 25 28 30 35 36
38 39 41 42 43 44 45 46 47 48 48 47 47 47 47 46 46 45 45 43 42 42 41 40 39 39 39 39 40 41 41 43 47 51 56 58 57 56 55 53 53 53 53 52 51 49 48 46 45 43 42 40 40 39 38 36 35 33 32 30 28 27 26 25 24 22 20 18 15 14 12 10 6 3 0 4 4 6 9 10 13 15 19 23 26 28 32 36
38 37 38 39 41 42 44 45 47 48 49 49 49 49 49 48 48 47 46 46 45 44 44 43 41 41 41 42 42 43 42 44 47 51 56 59 59 58 57 55 53 53 54 54 53 52 51 49 47 45 43 41 41 40 39 38 37 35 34 32 30 29 28 27 26 23 21 19 16 16 14 11 8 5 2 5 7 7 7 8 11 13 17 20 24 27 30 33
43 41 40 39 39 40 42 43 45 47 49 50 51 51 51 50 50 49 49 48 48 47 46 46 45 43 43 44 44 44 44 45 47 51 56 59 60 60 59 57 55 55 55 55 55 54 52 50 48 47 44 42 41 41 40 40 38 37 36 35 33 32 30 29 27 25 23 21 18 16 15 12 9 6 3 4 6 6 8 9 10 13 15 18 22 25 27 30
47 46 45 43 42 41 41 42 43 45 47 49 51 53 53 52 51 51 51 50 50 49 49 48 48 47 46 46 46 46 46 46 48 51 55 59 61 62 62 60 57 56 56 56 56 55 53 51 50 48 46 43 42 42 42 41 40 39 39 38 36 34 33 30 28 26 24 23 21 19 16 14 11 7 3 2 3 4 7 9 10 12 14 16 19 23 25 27
50 50 49 48 47 45 44 43 42 43 46 48 51 53 54 54 54 53 53 52 52 51 51 51 50 50 49 48 48 48 48 49 49 51 55 58 61 63 63 62 60 58 58 57 57 56 55 53 51 50 47 45 43 43 43 43 42 41 40 39 38 36 35 33 31 28 26 24 22 21 18 16 13 9 6 2 0 2 4 7 10 11 13 14 16 20 23 25
49 50 51 50 50 49 48 47 45 44 45 47 50 52 54 55 55 55 55 55 54 54 53 53 53 53 52 50 50 50 50 51 51 52 55 58 61 64 65 64 62 61 60 59 58 57 56 54 53 51 48 46 45 44 44 44 44 43 42 41 40 38 36 35 33 31 29 26 23 21 19 17 15 11 8 6 3 4 3 3 8 9 12 12 13 16 19 22
47 48 50 51 51 52 52 51 50 49 48 48 49 51 53 55 56 57 57 57 57 56 55 56 56 55 55 53 52 52 53 53 53 53 55 58 61 64 66 65 65 63 62 61 60 59 58 56 55 52 49 47 47 46 45 46 45 45 44 42 41 39 37 36 35 33 30 28 25 23 22 19 15 11 10 9 5 5 4 1 4 8 9 10 11 13 15 18
46 47 48 50 51 53 54 54 53 53 53 52 51 50 51 53 56 57 59 59 59 59 58 58 58 58 57 56 55 54 55 55 55 55 56 58 61 64 66 66 66 66 64 62 61 60 59 58 56 54 50 48 48 48 47 47 47 46 45 43 42 40 39 38 36 35 32 30 28 26 24 22 16 12 12 11 8 6 3 2 1 5 7 8 9 10 12 14
44 46 47 49 51 52 54 55 56 56 57 57 55 52 50 51 55 58 60 61 61 61 60 60 60 60 59 59 58 57 57 57 57 57 57 58 61 64 66 67 67 67 66 64 62 61 60 59 58 56 53 52 51 50 49 49 48 48 47 45 44 42 41 40 38 36 34 32 31 29 27 24 20 16 14 12 10 8 4 3 1 3 5 6 7 8 9 11
44 44 45 46 48 51 53 55 56 57 59 60 59 56 53 52 54 57 60 62 63 63 63 63 62 62 62 61 61 60 59 59 59 59 59 59 61 64 66 67 68 69 68 66 64 62 61 61 60 59 57 55 54 52 51 50 49 49 48 47 46 44 43 41 38 38 36 35 33 32 30 27 24 22 19 16 13 11 8 6 4 3 5 6 6 7 8 10
45 44 42 43 44 47 50 53 54 57 59 61 61 60 58 56 55 56 59 62 64 65 65 65 65 65 64 63 63 63 61 61 61 61 61 61 61 63 66 67 68 70 69 68 66 65 64 63 62 61 59 58 56 55 53 52 50 50 49 48 47 46 45 43 40 39 38 37 36 34 32 30 28 26 24 22 19 15 13 10 7 6 6 7 7 7 8 9
46 45 43 42 41 43 46 49 52 55 59 61 62 63 62 61 58 56 58 62 65 66 67 67 68 67 66 66 65 65 64 63 63 63 63 63 63 63 65 67 69 69 70 69 68 67 66 65 64 62 61 60 59 57 55 54 53 51 49 48 48 47 46 45 43 41 40 38 37 36 35 33 31 29 27 25 22 18 16 14 10 9 9 8 7 8 8 9
46 45 44 43 42 42 43 45 49 54 58 60 62 64 65 64 62 58 58 61 64 67 68 69 70 70 69 68 68 67 67 66 65 65 65 65 65 64 65 67 69 69 69 70 70 69 68 67 66 64 63 62 61 60 58 56 55 53 51 49 48 47 46 46 45 43 41 40 39 38 37 35 34 32 30 28 25 22 19 17 14 12 11 10 9 9 9 9
45 46 45 44 43 43 44 44 47 52 56 58 61 64 66 67 66 62 59 60 63 67 70 71 72 73 72 71 70 70 69 69 68 67 66 66 66 67 67 67 69 69 69 70 71 70 70 69 67 66 65 64 62 61 60 59 57 55 53 51 50 48 47 46 45 44 42 41 40 39 38 37 36 34 33 31 28 25 21 19 17 15 13 12 11 10 10 9
45 45 45 45 44 44 45 46 47 50 53 56 59 63 65 67 68 66 62 60 63 67 71 73 73 74 74 73 72 72 71 71 71 69 68 68 68 68 68 68 69 69 70 70 71 71 71 70 69 69 68 66 64 63 61 60 59 57 55 54 52 50 48 47 46 44 43 42 40 39 39 39 37 36 34 33 31 27 23 21 19 16 15 14 13 12 11 10
45 45 45 45 45 45 45 46 48 49 52 54 57 61 64 66 68 68 65 61 63 67 71 74 75 75 76 76 75 74 74 73 73 72 70 70 70 70 70 69 69 70 71 71 71 72 72 71 71 71 69 67 66 64 63 61 60 59 57 56 54 52 51 49 48 46 44 42 41 40 40 39 38 37 36 34 32 29 25 22 21 18 16 15 15 14 13 11
45 45 46 46 45 45 46 47 49 51 52 55 57 60 63 65 66 68 67 63 63 67 71 74 76 77 77 77 77 77 77 76 75 75 73 72 72 71 71 71 71 71 72 72 72 72 72 72 72 71 71 70 69 67 65 63 61 60 59 58 56 54 53 51 50 48 46 44 43 42 40 39 38 37 37 35 33 31 28 25 23 20 19 18 17 16 15 12
47 47 47 47 46 46 47 49 51 53 54 57 58 60 61 63 64 67 67 64 63 66 70 74 77 78 78 79 80 79 79 78 77 76 76 74 73 73 73 72 72 72 72 73 73 73 73 73 72 73 73 72 71 68 66 64 63 62 61 60 58 57 55 54 52 50 48 46 45 43 41 40 39 38 37 36 34 32 29 27 25 23 22 20 19 18 17 14
49 49 48 47 47 47 49 51 53 55 56 58 59 59 60 60 62 64 65 65 64 65 70 74 77 79 80 80 81 81 81 80 79 79 78 77 75 74 74 74 73 73 73 74 74 74 74 73 73 74 74 73 72 70 68 67 65 63 62 61 60 58 57 55 54 52 50 48 46 44 42 41 40 39 38 37 35 33 31 30 28 26 25 23 22 20 18 16
51 50 48 47 48 49 51 53 55 57 57 57 58 58 58 58 59 61 62 63 63 64 68 73 76 79 81 81 82 83 83 82 82 81 80 80 78 76 75 75 75 75 75 75 75 75 74 74 74 74 74 73 73 71 70 68 67 65 64 63 62 60 58 56 55 54 52 50 48 46 45 43 42 41 40 39 37 35 34 32 31 29 27 25 24 22 19 18
53 51 48 48 50 52 52 54 56 57 56 55 54 55 54 55 56 58 60 62 62 63 66 71 75 79 81 82 82 83 85 84 84 83 82 82 81 79 77 76 77 77 77 76 76 76 76 76 76 75 75 74 74 73 71 70 69 67 66 65 64 62 60 58 57 55 54 52 50 48 46 45 44 44 43 41 39 38 37 35 33 30 28 27 26 23 20 19
55 52 49 50 52 53 53 54 55 55 53 51 50 51 51 52 54 56 59 61 61 62 64 68 74 78 81 84 84 84 85 86 86 85 84 83 83 82 79 78 77 78 78 78 78 77 77 77 77 76 76 75 74 74 72 71 70 69 69 68 67 65 63 61 60 58 56 54 52 50 48 47 46 46 44 43 42 41 39 37 35 32 30 29 27 24 22 21
56 53 51 52 53 53 53 54 54 53 50 48 46 46 47 48 51 54 57 60 61 61 63 67 72 77 82 85 86 86 86 87 87 87 86 85 84 83 82 79 78 79 79 79 79 79 78 77 77 76 76 75 74 74 73 71 71 70 70 70 69 67 65 64 62 60 58 56 53 52 51 49 48 47 45 44 44 43 41 39 36 35 33 31 28 25 24 23
58 55 54 54 54 54 55 55 53 51 47 44 42 41 43 45 49 52 56 59 61 62 64 67 71 76 81 84 86 86 86 87 88 88 87 86 85 84 84 82 80 79 80 81 80 80 80 79 78 77 76 74 74 73 73 72 71 71 71 72 71 69 67 66 64 62 60 57 55 54 53 52 51 49 47 47 46 45 42 41 39 38 36 34 31 28 26 25
59 57 56 56 56 56 57 56 53 49 44 40 37 37 40 43 46 50 54 58 61 62 64 67 70 74 78 81 85 86 87 87 88 89 88 88 87 86 86 85 83 81 81 81 81 82 82 80 78 77 76 75 74 74 74 73 72 72 72 72 72 70 69 67 65 64 61 59 58 57 57 55 54 52 50 49 48 46 45 44 42 40 39 37 35 32 28 27
60 58 58 58 58 58 58 56 51 45 40 36 34 34 37 40 44 48 53 57 61 63 65 66 69 72 75 80 84 86 87 87 87 89 89 89 88 87 87 86 85 83 82 81 82 83 84 81 79 78 77 77 76 76 76 74 73 73 73 72 71 71 69 67 66 64 63 61 60 59 59 58 57 55 53 52 50 48 46 44 42 41 39 38 36 34 31 29
62 59 59 59 59 60 58 54 48 41 36 32 30 31 34 38 43 47 51 56 59 63 65 66 68 71 74 79 82 84 87 87 86 88 89 90 89 89 88 87 86 86 84 83 83 84 84 82 80 80 80 79 79 78 77 75 75 75 74 72 71 70 69 67 65 65 64 62 61 61 61 60 58 57 56 54 51 49 46 44 42 41 39 38 36 34 32 30
63 61 60 60 60 60 58 52 45 38 32 28 27 28 32 36 41 45 50 55 58 62 65 67 68 71 73 77 79 82 86 87 87 87 89 91 91 90 89 89 88 88 87 86 84 84 84 82 82 82 82 81 81 79 78 78 77 76 74 73 72 70 69 68 66 66 65 63 62 62 62 61 59 57 56 55 53 50 48 47 45 44 41 39 36 35 33 31
63 61 61 61 60 60 57 51 43 34 28 25 24 26 29 34 39 44 49 53 57 61 64 67 70 71 73 75 78 81 85 87 88 88 88 90 92 92 91 90 90 90 90 88 87 86 84 83 83 84 83 83 82 80 80 80 79 77 75 74 72 71 70 68 67 66 64 63 63 63 63 63 60 58 57 56 54 52 50 49 48 47 45 41 38 36 34 33
64 62 61 61 61 60 56 50 41 32 25 22 21 23 27 32 37 42 47 51 55 59 63 67 70 72 73 75 78 82 84 86 88 89 89 89 91 93 93 92 91 91 91 90 89 88 86 84 84 84 85 85 83 82 82 82 80 78 76 75 74 72 70 68 66 64 63 63 64 63 64 65 62 59 58 56 55 53 51 50 50 48 47 44 42 40 38 35
64 62 61 61 61 60 56 49 39 30 23 20 19 21 25 29 34 40 44 49 53 57 62 66 69 71 73 76 79 82 84 87 89 90 90 90 91 93 94 94 93 93 93 92 91 90 88 86 85 85 85 86 85 84 84 84 82 80 78 77 76 73 71 68 66 63 62 63 64 63 64 65 63 60 58 56 55 54 53 52 51 50 48 47 45 43 41 39
63 62 61 61 61 61 56 48 38 29 22 18 17 19 23 27 32 37 41 46 51 56 60 64 68 71 74 77 79 82 85 87 89 91 92 92 92 92 94 96 96 95 94 93 93 92 90 89 87 86 85 86 86 86 86 85 84 82 80 79 78 75 73 70 68 66 63 63 65 64 64 65 64 61 59 57 56 55 55 54 52 51 50 48 46 45 43 41
62 61 61 61 61 61 57 48 37 28 22 18 16 18 21 26 30 34 38 42 48 53 57 61 66 70 73 76 79 82 85 88 90 91 93 94 93 93 94 96 97 97 95 94 94 93 92 91 89 87 86 86 86 87 87 87 86 85 83 81 80 77 75 73 71 69 67 67 67 66 65 65 65 63 61 59 57 55 55 55 53 52 50 49 48 46 45 43
61 60 59 60 62 62 57 48 38 29 22 17 15 16 20 24 28 32 35 40 45 49 54 58 62 67 71 75 78 81 85 87 90 92 93 95 95 95 94 96 98 99 97 96 95 94 93 92 91 89 88 87 87 87 88 88 88 86 85 83 82 80 78 76 74 72 71 69 68 67 65 64 65 65 62 59 57 55 55 54 54 52 51 50 49 47 46 44
60 59 59 59 61 62 58 48 38 29 23 18 14 15 18 22 26 30 34 38 42 47 51 55 59 63 68 72 76 80 84 87 89 92 94 95 96 96 96 96 98 99 99 98 96 96 95 94 93 91 90 89 88 87 88 88 89 88 86 85 84 82 81 79 77 75 73 71 69 68 65 63 64 64 61 59 57 55 54 54 53 52 51 50 50 49 47 45
59 58 58 59 60 61 58 49 38 30 24 19 15 13 16 20 24 29 32 36 40 45 49 52 55 60 64 69 73 78 82 85 89 92 94 96 97 98 98 97 98 99 101 100 99 98 97 96 95 94 92 92 91 89 89 88 89 89 88 87 86 85 83 82 79 77 75 73 71 69 67 65 64 63 62 60 58 55 54 54 53 52 51 51 50 50 48 46
58 57 57 59 61 61 58 50 40 32 25 20 15 12 14 19 23 27 31 35 38 42 46 50 53 57 60 65 69 73 78 82 86 90 93 96 98 99 99 99 99 99 101 102 101 100 99 98 97 96 95 94 93 92 91 89 89 89 89 88 87 86 85 84 82 80 78 76 73 71 70 67 65 64 64 62 59 57 54 54 54 53 52 51 51 50 49 47
56 56 56 58 61 62 59 51 41 34 27 21 16 12 13 17 21 26 30 33 37 40 44 48 51 54 57 60 64 68 72 77 82 87 91 94 97 99 100 100 100 100 100 102 103 102 101 100 99 97 97 96 95 94 93 91 90 89 89 88 88 87 86 85 84 82 80 78 76 74 72 69 67 67 66 64 61 59 56 55 55 54 53 52 51 51 49 48
54 54 55 57 59 61 60 52 43 35 28 22 17 12 11 15 19 24 29 32 36 39 43 46 49 52 54 57 61 64 68 72 77 82 87 91 94 97 99 100 101 101 101 101 103 104 103 102 100 99 98 97 96 95 94 93 92 91 90 89 89 88 87 87 86 84 82 80 79 77 74 71 69 69 69 67 64 61 58 57 56 55 54 53 52 52 50 49
52 52 54 57 59 61 60 54 45 37 30 23 18 13 10 13 17 22 27 31 35 38 41 45 48 51 54 56 58 61 64 68 72 77 82 87 91 95 97 99 101 101 101 101 101 102 103 103 102 100 99 98 97 96 95 94 93 92 91 90 89 89 88 87 87 85 84 82 81 80 77 75 73 71 71 70 67 64 61 60 58 57 55 55 54 53 51 50
50 50 52 56 59 62 61 56 47 38 31 25 19 14 10 11 15 20 24 29 33 36 39 43 47 50 53 55 57 59 61 64 68 72 77 82 87 91 95 98 99 101 101 100 100 100 101 103 102 101 100 99 98 97 96 95 94 93 93 91 91 90 89 88 87 86 85 84 83 82 80 78 76 74 73 72 70 67 65 63 61 59 58 57 56 54 53 51
49 49 51 54 57 61 62 57 49 40 32 26 20 15 11 10 13 17 22 26 31 35 38 41 45 48 52 54 56 58 60 62 65 68 72 76 81 86 91 95 97 99 100 100 100 99 99 101 102 102 101 99 98 97 96 96 95 94 94 93 92 91 90 89 88 87 86 85 84 83 82 80 79 77 76 75 73 71 68 66 64 62 61 60 58 57 54 53
48 48 49 52 55 59 61 58 51 42 33 26 21 17 12 10 11 14 19 24 28 32 36 40 43 46 50 53 56 58 59 61 63 65 68 72 76 80 86 90 94 97 99 100 100 99 99 99 101 102 102 101 100 98 97 97 96 95 95 94 94 93 92 91 89 88 87 86 86 85 83 81 81 80 79 78 77 75 72 69 67 65 64 62 61 59 57 55
48 48 49 51 54 57 59 58 52 43 35 27 22 18 13 10 10 12 16 21 25 29 34 38 41 44 47 50 54 57 59 60 61 63 65 69 72 76 80 85 90 94 97 99 101 101 100 100 100 101 102 102 102 101 100 99 98 97 97 96 95 95 93 92 92 90 89 88 87 86 83 82 82 82 81 80 80 79 76 73 71 69 67 65 64 62 61 58
47 47 49 51 53 56 58 58 53 45 37 29 24 20 15 11 9 11 13 17 22 26 30 34 38 42 45 48 51 55 58 60 61 62 63 66 69 73 77 81 85 90 95 98 101 102 102 101 101 101 101 103 103 103 102 101 100 99 98 98 97 97 95 95 94 93 91 91 89 87 84 83 83 83 82 82 82 82 81 78 75 73 71 69 67 65 63 61
46 47 49 50 53 56 58 58 54 47 38 31 25 21 17 12 9 9 11 15 19 23 27 31 36 40 43 46 49 52 56 58 60 61 62 64 66 69 73 77 81 85 90 94 98 101 102 103 103 102 101 102 103 104 104 103 102 101 101 100 100 99 98 97 96 95 94 93 92 89 86 85 84 84 83 83 83 83 83 82 79 76 75 73 70 68 67 65
45 46 48 50 52 55 57 58 55 49 41 33 27 23 19 15 10 8 9 12 16 20 24 29 33 36 40 44 47 50 52 56 58 60 62 63 64 66 69 73 77 81 85 89 94 98 101 103 104 103 103 102 103 104 105 105 105 104 103 103 102 101 100 99 98 97 97 96 94 92 89 87 86 85 85 84 84 84 85 85 83 81 78 76 74 72 70 68
44 45 47 48 51 54 56 58 56 51 44 36 29 24 21 17 13 9 8 10 13 16 21 25 29 33 36 40 44 47 50 53 56 59 61 62 63 65 67 70 73 77 80 84 89 93 98 101 103 104 104 104 103 104 105 106 107 106 106 105 104 103 103 102 101 100 99 98 97 95 92 90 88 87 86 85 85 84 85 86 85 84 82 80 78 76 74 71
42 44 46 47 50 53 55 57 56 52 45 38 32 26 22 19 16 12 8 7 10 13 17 21 25 29 33 37 40 44 47 50 54 57 59 62 63 65 66 67 69 73 76 80 84 88 93 97 101 103 104 105 105 104 104 105 107 108 108 107 106 106 105 104 103 102 101 100 99 98 96 93 91 89 88 87 86 85 85 86 86 86 85 83 81 80 77 75
41 43 45 47 49 52 54 55 55 52 46 40 34 27 23 20 17 14 10 7 7 10 14 17 21 25 29 33 37 40 44 47 51 54 57 60 62 64 65 66 68 69 73 76 80 84 87 91 96 100 103 105 106 105 105 105 106 107 108 109 109 108 108 107 106 104 103 102 102 100 98 96 94 92 90 89 88 87 86 86 87 87 87 85 84 82 81 79
Wind_Direction
278 276 274 271 270 268 267 265 263 260 258 256 253 251 249 247 245 242 240 238 236 235 234 230 227 225 224 224 225 223 216 210 210 210 209 210 210 210 210 210 210 210 209 209 209 208 208 206 206 206 205 206 205 205 205 204 204 205 205 202 199 196 195 192 185 179 179 198 220 221 209 216 219 95 5 11 65 40 38 35 24 23 23 24 21 22 30 35
280 278 275 273 270 268 266 264 263 261 258 256 254 252 249 247 245 243 240 237 235 233 233 231 227 226 224 223 224 224 219 212 210 211 210 210 210 211 211 211 211 211 210 210 211 210 210 209 208 208 207 206 206 206 205 205 205 205 207 206 204 202 201 200 193 186 184 192 211 216 216 223 218 230 344 39 67 29 43 36 21 22 24 26 24 25 32 37
285 281 278 275 272 269 266 264 262 260 258 256 254 252 250 248 246 243 240 238 235 232 231 231 228 226 224 222 222 224 221 215 210 211 211 210 210 212 212 212 211 212 212 211 212 212 212 211 209 209 208 207 208 207 206 205 206 206 207 208 207 206 204 204 201 193 189 192 204 212 217 223 227 236 314 64 47 35 51 39 24 23 22 27 28 28 33 37
293 288 283 279 274 270 267 264 261 260 258 256 254 251 249 247 246 243 241 238 235 232 230 230 228 226 224 223 222 222 222 218 212 211 212 211 211 212 213 213 212 212 213 212 213 213 213 212 210 210 209 209 209 209 207 206 207 207 208 210 210 208 206 206 205 202 197 196 205 214 218 223 228 226 178 77 62 46 46 44 36 25 21 30 32 31 33 36
298 295 290 285 279 274 269 265 262 259 257 256 254 251 249 246 245 244 242 239 236 233 230 229 228 226 224 223 222 221 222 220 215 212 212 212 212 212 213 213 213 213 214 214 214 214 213 213 213 212 210 210 210 210 209 208 208 208 209 211 211 211 209 208 208 208 207 205 207 215 218 218 213 208 182 94 77 53 46 54 44 29 27 33 35 33 33 34
299 296 293 290 285 280 274 268 263 259 256 255 253 251 249 246 244 242 241 239 236 233 231 229 227 226 224 223 222 221 221 221 218 214 212 212 212 213 214 214 213 214 215 215 215 214 214 214 214 213 212 211 211 211 210 210 210 210 210 211 212 213 211 210 211 211 213 213 216 221 223 216 203 202 197 119 81 65 61 62 49 36 34 34 37 35 32 32
296 295 293 290 287 284 280 274 268 262 257 254 252 250 249 247 244 241 240 239 237 233 231 229 227 226 224 222 222 221 220 221 220 217 213 212 213 213 214 214 214 215 215 215 215 215 215 215 216 215 213 212 212 212 211 211 212 212 212 212 212 213 213 213 213 215 216 217 220 223 224 220 212 212 210 209 101 119 97 66 55 44 37 32 35 37 31 30
293 292 290 288 286 284 281 278 274 268 262 256 252 249 247 246 244 242 239 238 236 234 231 229 227 226 224 223 221 221 220 220 220 219 216 212 212 214 214 215 215 215 216 216 216 216 216 216 216 216 215 214 214 213 212 213 213 214 215 214 214 213 214 215 216 217 218 219 221 222 224 224 219 215 211 224 233 172 171 80 59 46 39 29 27 36 31 26
294 290 287 285 283 281 279 277 275 271 267 261 255 249 246 245 243 242 239 237 235 234 231 229 228 226 225 223 221 221 220 219 219 220 218 215 213 213 214 215 215 216 216 216 216 216 216 216 216 217 216 216 217 215 214 214 214 215 216 216 216 216 215 217 218 219 220 221 222 223 226 228 222 220 218 219 214 184 188 173 60 40 35 26 19 29 28 22
299 293 287 283 279 277 275 274 273 270 268 265 260 254 247 244 242 241 239 237 234 233 231 229 227 226 225 223 222 221 220 219 219 219 220 217 214 213 214 215 216 216 216 216 216 217 217 217 217 217 217 218 219 218 217 216 215 216 217 218 218 218 218 218 218 221 222 223 225 225 228 229 222 222 219 209 204 195 193 215 51 26 20 17 12 17 20 15
302 296 289 283 277 274 272 271 270 268 267 265 263 259 252 245 241 239 238 236 234 232 230 228 227 226 225 224 222 221 220 220 219 218 219 219 217 215 214 215 216 216 217 217 217 217 218 218 219 219 218 219 220 220 220 218 216 217 217 218 219 220 220 219 219 221 223 224 227 227 229 229 222 216 212 206 208 213 222 243 258 351 354 356 358 0 6 7
305 299 291 283 277 273 270 268 267 266 264 264 263 261 256 249 243 238 236 235 234 231 229 228 226 225 224 223 222 221 220 220 219 218 218 219 218 217 214 214 216 216 217 217 217 218 219 219 219 219 219 220 220 221 222 220 218 218 218 218 219 220 222 222 220 222 223 225 228 229 230 231 227 222 219 221 227 229 236 246 249 290 322 331 337 340 345 354
307 302 295 286 279 274 270 267 265 264 263 262 262 261 259 254 246 239 235 234 233 231 229 227 226 224 223 223 222 221 220 220 219 218 218 218 219 218 216 214 215 216 217 217 218 218 219 220 220 220 220 220 221 222 223 222 221 220 219 220 220 221 222 223 222 223 224 226 228 231 232 233 232 231 230 234 237 235 238 244 251 269 293 307 316 320 324 336
309 306 301 293 285 277 272 268 265 262 261 261 261 260 259 256 251 243 236 233 232 230 228 227 225 224 222 222 222 221 220 220 219 218 217 218 219 219 218 215 215 216 217 217 218 219 220 220 220 221 221 221 222 223 223 223 223 223 221 221 222 222 223 223 224 224 225 227 229 232 234 234 235 235 236 238 240 239 240 245 251 264 276 288 301 307 314 323
309 308 305 299 292 283 276 270 265 262 261 260 260 259 258 257 254 247 238 233 230 229 228 226 225 223 221 220 221 221 220 220 220 219 217 217 218 219 219 217 216 215 216 217 218 220 220 221 221 221 221 221 222 223 224 223 224 224 223 223 224 224 225 225 225 225 226 228 229 232 234 235 236 236 237 239 241 242 241 244 249 258 268 276 286 293 304 314
309 309 308 303 296 288 281 275 270 265 263 261 260 259 258 257 255 251 242 234 230 228 227 226 224 223 221 220 219 220 220 220 220 219 218 217 217 218 219 218 216 215 215 216 217 219 220 221 222 222 222 222 222 223 224 224 224 225 224 225 225 226 226 226 227 227 227 228 230 232 234 236 237 237 238 240 242 243 242 243 247 254 262 269 275 281 291 303
310 310 310 305 298 290 284 280 276 271 266 263 260 259 257 256 255 253 246 236 230 228 226 225 224 222 221 219 218 219 220 220 219 219 218 217 217 217 218 218 217 216 215 216 217 218 220 221 222 223 223 223 223 224 224 224 225 225 225 225 226 226 227 227 228 229 228 228 230 232 234 236 238 238 239 241 243 244 243 243 246 251 257 262 268 273 281 291
313 312 311 307 300 292 287 283 279 274 269 266 263 260 258 256 254 253 249 240 231 227 226 224 223 222 220 219 218 218 219 219 219 219 218 217 217 217 217 218 218 217 216 216 216 217 219 220 222 223 224 223 223 223 224 224 225 226 226 226 226 227 227 228 229 230 229 229 229 231 232 234 237 238 239 240 242 243 241 241 244 248 251 254 259 266 273 282
315 315 313 308 302 294 289 285 280 276 273 270 266 263 259 256 254 252 249 243 234 228 225 223 222 221 220 218 217 217 218 218 219 218 218 218 217 217 217 217 218 217 217 217 216 216 218 219 221 222 223 224 224 223 223 224 225 226 227 227 227 228 228 229 230 230 230 230 230 230 232 233 235 237 237 238 239 240 239 239 241 244 246 247 250 257 264 273
320 318 315 310 303 296 291 287 283 279 276 273 269 266 262 257 254 251 249 244 237 229 225 223 221 220 219 218 217 216 217 217 218 218 218 217 218 217 217 217 218 218 218 218 217 217 217 218 220 222 223 224 224 224 224 224 224 225 226 227 228 228 229 230 230 231 231 231 231 232 233 235 236 237 238 238 238 239 239 238 239 241 243 244 244 248 256 264
324 321 316 309 302 297 293 290 286 282 278 275 272 268 264 259 254 250 248 245 239 231 225 222 220 219 219 218 217 216 216 217 217 218 217 217 217 217 217 217 217 218 218 218 218 218 217 217 219 221 223 224 224 224 224 224 225 225 226 227 228 228 229 230 231 231 232 232 232 232 233 234 236 237 239 239 239 239 239 239 239 240 242 245 245 245 251 257
327 321 315 308 303 299 297 294 289 284 280 277 273 269 264 259 253 249 246 244 239 233 225 221 219 218 218 217 216 216 215 216 216 217 217 217 217 217 217 217 217 218 218 219 219 218 217 217 218 220 222 223 224 224 225 225 225 225 226 227 228 229 229 230 231 232 232 232 232 232 233 233 235 236 238 238 239 238 238 239 239 240 243 246 247 247 249 254
328 322 315 309 305 303 301 296 291 287 283 279 275 269 262 256 251 246 243 241 238 233 226 221 219 217 217 217 216 215 215 215 216 216 217 217 216 217 217 217 217 218 218 218 219 219 218 218 218 219 221 223 224 224 224 225 226 226 227 227 227 228 229 230 230 231 231 232 232 233 233 233 234 235 236 238 238 238 238 238 239 241 242 245 247 248 249 253
328 323 317 312 309 307 303 298 294 291 287 282 276 268 260 253 247 242 238 237 235 231 225 221 218 217 216 216 215 215 215 215 215 216 216 217 216 216 216 217 217 218 218 218 219 219 219 219 219 219 220 222 223 224 224 224 225 226 227 227 227 228 229 230 230 230 231 231 231 232 233 233 234 235 236 237 238 238 238 238 239 240 242 244 246 247 249 250
329 324 319 316 314 311 307 303 300 296 291 285 276 267 258 249 242 237 234 232 230 227 223 219 217 216 215 215 215 215 214 214 214 215 216 216 217 216 216 217 217 218 219 219 219 219 220 220 220 220 220 221 222 223 224 224 224 226 227 227 227 227 228 229 230 230 231 231 232 233 233 233 234 235 235 236 237 237 238 238 237 238 240 242 244 244 246 249
331 327 322 320 319 316 312 309 305 301 295 286 276 265 254 245 238 233 230 228 226 224 221 218 216 215 215 214 214 214 214 214 214 214 215 216 217 216 216 217 217 218 219 219 219 220 220 220 219 219 220 220 222 223 223 223 223 224 226 227 227 227 228 229 230 231 231 231 232 233 234 234 234 234 235 235 236 237 237 236 236 236 238 240 241 241 242 246
333 329 326 324 323 320 316 313 310 304 297 286 274 261 250 242 235 230 226 224 223 221 219 217 215 214 214 214 214 214 214 214 214 214 215 216 216 217 217 217 217 218 219 219 220 220 220 220 219 219 220 220 221 222 223 223 223 223 225 226 227 228 228 229 230 231 232 232 233 234 234 234 234 234 234 235 236 236 237 237 238 238 239 240 241 240 240 242
334 330 328 328 326 323 320 317 313 307 297 285 271 258 247 239 232 227 224 222 220 219 218 216 214 213 213 213 213 214 214 214 214 214 215 215 216 217 217 217 217 218 219 220 220 221 221 220 219 220 220 220 221 222 223 223 223 224 224 225 227 228 228 229 230 231 232 233 234 235 235 235 236 235 235 236 237 238 240 242 243 244 243 243 243 243 241 241
335 332 331 331 328 325 323 321 317 309 298 285 269 255 244 236 230 225 221 220 218 217 216 215 213 212 211 212 212 213 214 214 214 215 215 215 216 217 217 217 217 218 219 220 220 221 221 220 219 220 220 220 221 222 222 223 224 225 225 225 225 226 228 228 229 230 231 232 233 234 235 235 236 237 237 237 238 240 241 243 244 245 246 246 247 247 245 243
336 334 334 332 330 328 327 325 320 311 298 284 268 253 242 235 229 223 219 218 216 215 215 214 213 211 211 211 211 212 213 214 214 215 215 216 216 216 217 218 218 218 219 219 220 221 222 220 220 220 221 221 221 221 222 223 224 225 225 225 225 225 226 227 227 228 229 230 232 233 235 235 236 237 238 238 239 239 239 240 241 241 242 243 246 248 250 249
337 336 336 334 332 331 331 329 323 313 299 284 267 252 241 233 228 223 218 216 215 214 214 214 213 211 210 210 211 211 213 213 214 215 215 216 216 217 217 218 218 219 219 219 220 221 221 221 220 220 221 221 222 222 222 224 225 225 225 226 225 225 225 226 227 228 229 229 230 232 234 235 235 236 237 238 239 239 239 239 240 241 241 240 240 242 245 247
338 338 337 335 334 335 336 333 326 316 302 285 267 250 239 233 228 223 219 215 214 213 213 213 213 212 210 210 210 211 212 212 213 214 215 216 216 217 217 218 218 219 219 219 220 221 221 221 221 221 221 222 222 222 223 224 224 224 225 226 226 225 225 225 226 227 228 229 229 230 233 234 234 235 237 238 239 239 239 240 240 241 242 241 239 238 238 239
339 338 338 337 337 339 339 336 329 319 306 287 268 249 237 231 228 224 219 215 213 212 212 212 213 212 211 210 210 210 211 212 212 213 214 215 216 217 217 218 218 219 219 219 220 221 221 221 221 221 221 222 222 222 223 224 224 224 225 226 226 226 225 224 224 225 226 228 228 229 231 233 233 234 235 236 237 238 239 239 240 241 241 242 242 240 239 238
340 339 339 339 341 343 342 338 332 323 311 292 270 249 235 228 226 224 220 216 213 212 211 211 212 212 211 211 211 211 211 212 212 213 214 215 216 217 217 218 219 219 219 219 220 221 221 221 221 222 222 222 222 222 223 224 224 224 224 226 226 226 225 224 222 222 223 225 227 228 230 232 232 232 233 234 235 237 238 239 240 241 241 242 243 242 241 241
340 340 340 341 344 346 344 341 336 328 317 299 275 251 235 226 222 222 220 217 215 213 212 212 212 212 212 212 211 211 211 212 212 212 213 214 215 216 217 218 219 219 219 219 220 221 221 222 222 222 222 222 222 223 223 224 225 224 224 225 226 226 225 224 223 222 222 224 227 228 230 232 232 232 232 233 234 236 238 239 239 240 241 241 242 242 241 241
341 341 342 344 347 348 347 344 339 332 323 308 282 255 238 227 221 219 218 216 215 214 213 212 212 212 212 212 212 212 212 212 212 212 213 214 215 216 217 218 219 219 219 219 220 221 221 222 222 222 222 223 223 223 224 225 225 225 224 225 225 226 225 225 224 224 223 224 227 229 230 231 233 233 232 233 233 234 236 238 238 239 239 240 240 241 241 240
340 341 343 346 350 350 348 346 342 337 329 317 292 259 239 228 221 217 216 216 214 213 213 213 213 213 213 213 213 213 213 212 212 213 213 214 215 215 216 217 218 219 219 219 220 220 221 222 222 222 223 223 223 223 224 225 226 226 225 225 225 226 226 225 225 225 224 224 226 227 228 230 232 234 233 233 232 232 234 236 237 238 238 239 239 239 239 239
340 341 344 348 351 352 350 347 345 341 334 325 305 270 243 229 222 218 216 215 215 213 213 213 213 213 213 213 214 214 214 213 213 213 213 214 215 215 216 217 218 219 219 219 220 220 221 222 222 222 223 223 223 223 224 224 225 226 226 226 226 226 226 226 225 225 225 225 225 226 227 228 231 233 233 232 231 231 232 234 236 237 237 238 239 239 239 238
341 342 345 349 352 354 352 349 347 345 339 331 316 285 250 232 223 219 217 216 215 214 213 213 213 214 214 214 214 215 215 215 215 214 214 214 215 215 216 217 218 219 219 219 220 220 221 221 222 222 223 223 223 224 224 224 225 226 226 226 226 226 226 226 226 226 226 226 225 226 226 227 228 231 233 232 231 230 230 232 234 235 236 237 238 239 239 238
341 342 345 350 353 355 354 352 349 347 343 335 324 300 264 238 224 219 217 216 215 215 214 214 214 214 215 215 215 215 216 216 216 216 216 216 216 216 216 217 218 219 219 219 219 220 221 221 222 222 223 223 224 224 224 224 225 226 226 227 227 227 227 227 227 226 226 226 226 226 226 226 227 229 231 231 231 229 228 230 232 234 235 237 237 238 238 238
342 343 346 350 354 356 356 354 352 349 345 339 330 310 275 246 230 221 217 216 216 215 214 214 214 214 215 215 216 216 216 216 217 217 218 217 217 217 217 218 219 219 220 220 220 220 221 221 222 222 223 224 224 225 225 225 225 226 226 227 227 227 227 228 227 227 226 226 226 226 226 226 226 228 230 230 230 229 227 228 230 232 233 235 236 237 237 237
343 344 347 351 354 357 358 356 354 351 347 343 335 319 285 252 235 225 220 217 216 215 215 215 214 214 214 215 216 216 216 217 217 218 218 218 219 219 219 219 220 220 221 221 221 221 221 222 222 223 223 224 225 225 225 225 226 226 227 227 228 228 228 228 228 228 227 226 226 226 226 225 225 227 229 230 230 229 227 227 228 229 231 233 234 235 236 237
343 345 348 352 355 358 359 358 356 353 350 346 339 326 298 261 238 228 223 220 218 216 216 215 215 215 215 216 216 216 217 217 217 218 219 219 219 220 220 220 221 221 222 222 223 223 223 223 223 223 224 225 225 226 226 226 226 227 227 228 229 229 229 228 228 228 228 227 227 226 226 225 225 226 228 231 230 229 228 227 227 228 229 231 233 234 235 236
344 346 349 353 356 358 359 359 358 355 351 349 344 332 310 277 248 231 225 222 220 218 217 217 216 216 216 216 217 217 217 218 218 218 219 219 220 220 220 221 221 222 223 223 224 224 224 224 225 225 225 225 226 226 227 227 227 228 228 228 229 230 230 229 229 229 228 228 227 227 226 225 225 225 226 229 231 230 228 227 227 228 228 230 232 233 233 234
344 346 349 353 356 358 360 0 359 357 353 351 348 339 320 292 263 240 228 223 222 220 219 218 218 217 217 217 217 217 218 218 219 219 219 220 220 221 221 221 222 222 223 223 224 224 225 225 225 226 226 226 226 227 227 228 228 228 229 229 229 230 230 230 230 230 229 228 228 227 226 225 226 225 225 227 230 230 229 227 227 227 227 229 230 232 233 233
344 346 349 353 356 359 0 1 1 359 356 354 353 347 333 306 275 253 236 227 224 222 221 220 219 219 219 218 218 218 219 219 219 219 220 220 220 220 221 222 222 223 223 223 224 224 224 225 225 226 226 226 227 227 227 228 229 229 229 229 230 230 230 231 231 230 230 229 228 228 226 226 226 226 225 226 228 230 230 228 227 227 227 227 229 230 232 232
343 346 349 352 356 358 0 1 2 1 358 356 357 355 345 324 289 262 246 234 227 224 223 222 221 220 220 220 219 219 220 220 220 220 220 221 221 221 221 221 222 223 223 224 224 224 224 224 225 225 226 226 227 227 228 228 229 229 229 230 230 230 231 231 231 231 231 230 230 228 227 226 226 226 226 225 227 229 231 229 228 228 228 227 228 229 231 232
343 347 349 352 355 357 359 1 2 3 1 359 359 0 356 343 312 274 252 240 232 227 224 223 222 222 221 221 221 221 221 221 221 221 221 222 222 223 222 222 223 223 224 224 225 225 224 224 224 225 225 226 226 227 228 228 229 229 230 230 230 230 231 231 232 232 232 231 231 229 227 227 227 226 226 225 225 227 230 231 229 228 228 228 228 229 230 231
342 347 349 351 354 356 358 0 1 3 3 2 1 3 3 358 339 300 263 245 236 230 227 225 224 223 223 222 222 222 222 222 222 222 222 223 223 224 224 224 224 224 224 225 225 226 225 225 225 225 225 225 226 227 227 228 228 229 230 230 230 230 231 231 231 232 232 232 232 230 229 227 227 227 226 225 225 226 228 231 230 229 228 228 228 229 229 231
342 346 349 350 353 355 357 359 0 1 3 3 3 4 5 5 357 333 290 258 241 233 230 228 226 225 224 224 224 224 223 223 223 223 223 224 224 224 225 225 225 225 225 225 226 226 226 226 226 226 226 226 226 226 227 228 228 229 229 230 231 231 231 231 232 232 232 233 232 232 230 228 227 227 227 226 225 225 226 229 231 230 229 228 228 228 229 230
341 346 348 350 352 354 356 358 359 360 2 3 3 5 6 8 5 354 326 284 256 240 233 230 228 226 226 226 225 225 224 224 224 224 224 224 225 225 225 225 226 226 226 226 227 227 227 227 227 227 226 226 226 227 227 228 228 229 229 230 231 231 231 232 232 232 232 233 233 233 232 230 229 228 227 226 226 225 225 227 229 231 230 229 229 228 228 229
342 345 348 349 351 353 355 357 357 358 360 1 2 4 7 10 10 6 352 321 283 256 242 234 229 227 227 227 227 227 226 226 226 225 225 225 226 226 226 226 226 226 227 227 227 228 228 228 228 228 227 227 227 227 227 228 228 229 229 230 230 231 231 232 232 232 232 233 233 233 233 232 230 229 228 228 227 226 225 225 227 229 231 230 230 229 229 229
Height
10886 10886 10886 10887 10887 10887 10888 10889 10890 10891 10892 10894 10896 10897 10898 10900 10902 10904 10906 10907 10909 10911 10913 10914 10916 10917 10919 10921 10922 10924 10926 10928 10931 10934 10937 10941 10944 10947 10950 10953 10955 10958 10961 10964 10967 10971 10974 10977 10980 10983 10986 10988 10991 10993 10996 10999 11001 11003 11005 11007 11009 11011 11012 11013 11014 11015 11016 11016 11016 11018 11019 11020 11021 11021 11021 11022 11021 11021 11020 11019 11018 11017 11017 11016 11015 11012 11009 11006
10881 10881 10880 10881 10881 10881 10882 10882 10883 10884 10886 10887 10889 10891 10893 10895 10896 10898 10900 10902 10904 10906 10908 10910 10912 10913 10915 10917 10918 10920 10922 10925 10927 10930 10933 10937 10940 10943 10946 10949 10952 10955 10958 10962 10965 10968 10971 10974 10978 10980 10983 10986 10988 10991 10994 10997 10999 11001 11003 11005 11007 11009 11010 11011 11012 11014 11014 11015 11016 11017 11018 11020 11020 11021 11021 11022 11021 11021 11021 11020 11020 11019 11018 11017 11016 11014 11011 11009
10876 10875 10875 10875 10875 10875 10876 10876 10877 10877 10879 10880 10882 10884 10886 10889 10891 10893 10895 10897 10899 10901 10903 10905 10908 10909 10911 10913 10915 10916 10918 10921 10923 10926 10929 10932 10936 10939 10942 10946 10949 10952 10956 10958 10961 10964 10967 10970 10974 10976 10980 10983 10986 10988 10992 10995 10997 11000 11001 11003 11005 11007 11009 11010 11011 11012 11013 11014 11015 11016 11018 11019 11020 11021 11021 11022 11022 11021 11021 11021 11021 11020 11019 11018 11017 11016 11014 11011
10870 10870 10869 10869 10869 10869 10869 10870 10870 10871 10871 10873 10874 10877 10879 10882 10884 10887 10889 10891 10893 10896 10898 10900 10902 10905 10906 10908 10910 10912 10914 10917 10919 10922 10924 10928 10932 10935 10938 10942 10946 10949 10952 10954 10957 10959 10963 10967 10971 10974 10977 10981 10984 10986 10989 10992 10995 10997 10999 11001 11003 11005 11006 11008 11009 11010 11011 11013 11014 11015 11017 11019 11020 11021 11021 11022 11022 11022 11022 11022 11022 11021 11020 11019 11018 11017 11016 11014
10863 10863 10862 10862 10862 10862 10862 10863 10864 10864 10864 10865 10866 10868 10871 10874 10877 10880 10882 10885 10887 10890 10892 10895 10897 10899 10901 10904 10906 10908 10910 10913 10915 10917 10920 10924 10928 10931 10934 10938 10942 10945 10947 10950 10953 10956 10960 10965 10968 10971 10975 10979 10982 10984 10987 10990 10992 10995 10997 10998 11000 11002 11004 11006 11008 11009 11010 11012 11013 11014 11016 11018 11020 11021 11021 11022 11022 11022 11022 11022 11022 11021 11020 11020 11019 11018 11017 11016
10856 10855 10855 10855 10855 10855 10855 10856 10856 10857 10857 10858 10858 10860 10862 10866 10869 10873 10875 10878 10881 10883 10886 10889 10891 10893 10896 10898 10901 10903 10906 10909 10911 10913 10915 10919 10923 10926 10929 10934 10938 10941 10943 10946 10950 10953 10958 10961 10965 10968 10972 10976 10979 10982 10985 10987 10989 10992 10994 10995 10998 11000 11002 11004 11006 11008 11009 11011 11012 11014 11015 11017 11019 11020 11021 11022 11022 11023 11022 11022 11021 11021 11021 11020 11020 11019 11019 11018
10849 10847 10847 10847 10847 10847 10847 10848 10848 10849 10850 10850 10851 10852 10854 10857 10861 10865 10868 10871 10873 10877 10880 10883 10885 10887 10890 10893 10896 10899 10901 10904 10907 10909 10911 10914 10918 10921 10925 10929 10933 10936 10939 10942 10946 10950 10954 10958 10961 10965 10970 10974 10976 10979 10982 10984 10986 10988 10990 10993 10995 10998 11000 11002 11004 11006 11008 11009 11011 11013 11014 11016 11018 11020 11021 11021 11022 11022 11022 11022 11021 11021 11021 11021 11020 11020 11020 11019
10843 10840 10839 10838 10838 10838 10838 10839 10840 10841 10842 10842 10842 10843 10846 10849 10852 10856 10859 10863 10865 10869 10873 10876 10879 10881 10884 10887 10890 10894 10896 10899 10902 10904 10906 10909 10913 10916 10920 10924 10928 10931 10934 10938 10942 10947 10951 10955 10958 10962 10967 10971 10973 10975 10978 10981 10983 10985 10987 10990 10993 10995 10998 11000 11002 11004 11006 11008 11010 11011 11013 11015 11017 11019 11020 11020 11021 11021 11021 11021 11021 11021 11021 11021 11020 11020 11020 11020
10837 10834 10832 10831 10830 10829 10829 10830 10831 10832 10832 10833 10833 10835 10838 10841 10844 10847 10850 10854 10857 10861 10865 10868 10871 10874 10877 10881 10884 10888 10891 10893 10896 10899 10901 10905 10908 10911 10915 10919 10923 10927 10930 10934 10938 10942 10947 10951 10955 10959 10964 10967 10969 10971 10975 10977 10979 10982 10984 10987 10990 10994 10996 10998 11000 11002 11004 11006 11008 11010 11012 11014 11016 11018 11018 11020 11020 11020 11021 11021 11021 11021 11021 11021 11021 11020 11021 11021
10830 10827 10825 10824 10822 10821 10820 10820 10821 10822 10822 10822 10824 10827 10830 10833 10836 10838 10840 10844 10848 10852 10856 10860 10863 10867 10871 10874 10878 10882 10885 10887 10891 10894 10896 10900 10903 10905 10910 10914 10918 10922 10926 10930 10934 10939 10943 10948 10952 10956 10960 10963 10964 10967 10970 10973 10976 10979 10981 10985 10988 10991 10994 10996 10998 11001 11002 11004 11006 11008 11010 11012 11015 11016 11017 11018 11019 11020 11020 11020 11021 11021 11021 11021 11021 11021 11021 11022
10824 10820 10818 10816 10815 10813 10812 10812 10812 10812 10812 10812 10814 10817 10821 10824 10826 10828 10831 10834 10838 10843 10847 10851 10855 10860 10864 10868 10871 10875 10878 10881 10884 10888 10891 10894 10897 10900 10904 10909 10913 10917 10921 10926 10931 10935 10940 10943 10947 10951 10955 10957 10959 10963 10965 10968 10973 10975 10978 10982 10985 10988 10990 10993 10996 10999 11000 11002 11004 11006 11008 11010 11014 11015 11016 11017 11018 11019 11020 11020 11020 11021 11021 11021 11021 11021 11022 11022
10818 10814 10811 10809 10807 10806 10804 10804 10803 10803 10802 10803 10804 10807 10810 10814 10816 10819 10822 10824 10828 10833 10838 10842 10846 10851 10856 10860 10864 10867 10871 10875 10878 10882 10885 10889 10892 10895 10900 10904 10908 10912 10917 10922 10926 10931 10934 10937 10941 10945 10949 10952 10956 10958 10961 10965 10969 10972 10975 10978 10982 10985 10987 10990 10994 10996 10998 11000 11002 11004 11006 11008 11011 11013 11015 11016 11017 11018 11019 11019 11020 11020 11021 11021 11021 11021 11022 11022
10810 10807 10804 10801 10799 10798 10796 10796 10795 10794 10793 10793 10795 10797 10799 10802 10805 10809 10812 10815 10819 10823 10828 10832 10836 10842 10847 10852 10856 10860 10864 10868 10871 10875 10879 10883 10886 10890 10895 10899 10902 10906 10912 10917 10921 10925 10927 10931 10935 10939 10944 10948 10952 10954 10957 10962 10965 10968 10972 10975 10979 10982 10984 10987 10991 10994 10996 10998 11000 11002 11004 11006 11009 11011 11013 11014 11016 11017 11018 11019 11019 11020 11020 11021 11021 11021 11022 11022
10803 10799 10796 10793 10791 10790 10788 10787 10786 10784 10783 10784 10785 10786 10788 10790 10793 10798 10802 10806 10810 10813 10818 10822 10827 10832 10838 10843 10848 10853 10857 10860 10864 10868 10873 10877 10881 10884 10889 10893 10896 10901 10907 10912 10916 10919 10922 10926 10930 10934 10939 10943 10946 10949 10953 10958 10961 10965 10969 10973 10976 10979 10981 10985 10988 10991 10994 10996 10998 11000 11002 11004 11006 11009 11011 11013 11014 11016 11017 11018 11019 11019 11020 11020 11020 11021 11022 11022
10796 10791 10787 10784 10782 10781 10780 10779 10777 10775 10774 10775 10776 10777 10778 10779 10781 10786 10791 10796 10800 10804 10807 10812 10816 10822 10828 10834 10839 10844 10848 10853 10856 10861 10867 10871 10875 10879 10883 10887 10891 10896 10901 10905 10909 10913 10917 10921 10925 10930 10934 10937 10941 10945 10949 10954 10957 10961 10966 10970 10973 10976 10979 10982 10985 10988 10991 10993 10995 10997 10999 11002 11004 11006 11008 11010 11012 11014 11015 11016 11018 11018 11019 11019 11020 11020 11021 11022
10788 10784 10780 10776 10773 10771 10771 10770 10769 10767 10765 10766 10767 10767 10767 10768 10770 10774 10779 10785 10790 10793 10797 10801 10805 10811 10817 10824 10830 10835 10840 10845 10848 10853 10859 10864 10868 10872 10876 10881 10886 10890 10894 10898 10903 10907 10911 10915 10920 10925 10928 10931 10936 10940 10944 10949 10952 10957 10962 10966 10969 10972 10976 10979 10982 10985 10988 10990 10992 10994 10997 10999 11001 11004 11006 11008 11010 11012 11014 11015 11016 11017 11018 11018 11019 11020 11021 11021
10781 10776 10772 10767 10764 10762 10761 10761 10760 10757 10756 10756 10757 10756 10757 10757 10758 10762 10766 10772 10778 10782 10786 10790 10795 10801 10807 10814 10821 10827 10832 10836 10840 10846 10852 10857 10861 10865 10869 10874 10880 10885 10888 10891 10896 10901 10905 10910 10915 10918 10921 10927 10932 10935 10940 10945 10948 10953 10957 10961 10965 10969 10972 10975 10978 10981 10984 10987 10990 10992 10994 10996 10998 11001 11003 11005 11008 11010 11012 11013 11015 11016 11016 11017 11018 11019 11020 11021
10773 10768 10764 10759 10756 10753 10751 10751 10750 10747 10746 10746 10746 10745 10745 10745 10746 10749 10753 10759 10766 10770 10775 10780 10785 10791 10797 10805 10812 10817 10822 10827 10832 10838 10844 10849 10854 10858 10863 10868 10873 10878 10882 10885 10890 10895 10900 10904 10908 10912 10916 10922 10926 10930 10935 10939 10944 10948 10953 10957 10961 10965 10968 10971 10974 10977 10980 10984 10986 10988 10990 10993 10995 10998 11000 11003 11005 11007 11009 11011 11012 11014 11015 11016 11017 11018 11019 11020
10765 10760 10755 10751 10747 10744 10742 10741 10739 10737 10736 10735 10734 10733 10732 10733 10734 10736 10740 10746 10753 10758 10764 10769 10775 10780 10787 10794 10801 10806 10812 10818 10824 10830 10836 10841 10846 10852 10856 10861 10866 10871 10875 10879 10884 10889 10894 10898 10902 10906 10910 10914 10919 10924 10930 10935 10940 10944 10948 10952 10956 10960 10963 10966 10969 10973 10977 10980 10982 10984 10987 10990 10992 10994 10997 10999 11002 11004 11007 11009 11010 11011 11012 11014 11015 11017 11018 11019
10756 10751 10746 10742 10738 10736 10733 10731 10728 10727 10725 10723 10722 10721 10720 10720 10722 10724 10728 10734 10739 10745 10751 10757 10763 10770 10776 10783 10790 10796 10803 10809 10815 10821 10827 10833 10839 10844 10849 10854 10860 10864 10869 10873 10877 10882 10887 10892 10895 10898 10902 10908 10914 10920 10926 10931 10935 10939 10943 10947 10951 10955 10958 10961 10965 10969 10973 10976 10979 10982 10986 10988 10990 10991 10993 10996 10999 11002 11004 11006 11008 11009 11010 11011 11013 11015 11016 11018
10747 10742 10738 10734 10730 10727 10725 10721 10717 10715 10713 10711 10709 10708 10707 10707 10709 10712 10716 10722 10727 10732 10739 10745 10753 10760 10766 10773 10780 10787 10793 10800 10806 10812 10818 10825 10831 10836 10842 10847 10853 10857 10862 10866 10871 10876 10881 10885 10888 10893 10898 10904 10909 10916 10921 10926 10930 10934 10938 10942 10946 10950 10954 10958 10961 10965 10968 10972 10976 10980 10982 10984 10986 10988 10990 10992 10996 10999 11001 11003 11005 11007 11008 11009 11011 11014 11015 11016
10738 10734 10730 10725 10721 10718 10715 10711 10706 10702 10700 10699 10696 10694 10694 10695 10697 10701 10705 10709 10714 10720 10727 10735 10742 10750 10756 10763 10770 10777 10783 10790 10796 10802 10809 10816 10822 10828 10834 10839 10845 10850 10855 10859 10865 10870 10874 10878 10883 10888 10894 10898 10903 10910 10915 10920 10925 10929 10932 10936 10941 10945 10949 10953 10956 10960 10964 10968 10972 10975 10977 10980 10982 10983 10985 10988 10992 10995 10997 10999 11002 11004 11006 11007 11009 11012 11014 11014
10730 10726 10722 10718 10713 10709 10705 10700 10695 10690 10687 10686 10683 10680 10681 10683 10685 10689 10693 10697 10702 10708 10716 10725 10733 10739 10746 10752 10759 10767 10773 10780 10787 10793 10800 10807 10813 10820 10826 10832 10837 10842 10847 10852 10857 10862 10866 10871 10877 10882 10887 10891 10897 10903 10909 10915 10919 10923 10927 10931 10935 10940 10944 10948 10951 10955 10959 10963 10967 10970 10973 10975 10977 10979 10982 10985 10988 10991 10993 10996 10999 11001 11004 11005 11007 11010 11012 11013
10723 10718 10714 10709 10704 10699 10695 10689 10683 10678 10675 10672 10670 10667 10668 10670 10672 10676 10679 10684 10690 10697 10706 10715 10722 10728 10735 10741 10749 10756 10763 10770 10778 10784 10791 10798 10805 10812 10818 10825 10830 10835 10840 10845 10850 10854 10860 10866 10872 10877 10881 10886 10891 10897 10903 10908 10913 10917 10920 10924 10929 10934 10938 10941 10945 10950 10954 10958 10962 10966 10968 10971 10972 10975 10978 10981 10983 10986 10989 10993 10996 10999 11001 11002 11005 11008 11010 11011
10715 10711 10706 10701 10695 10689 10684 10677 10671 10666 10662 10659 10656 10654 10654 10657 10659 10663 10667 10673 10679 10686 10694 10702 10709 10716 10723 10730 10738 10745 10752 10760 10768 10775 10783 10790 10797 10804 10811 10817 10823 10827 10832 10837 10842 10848 10854 10860 10866 10871 10875 10880 10885 10890 10896 10901 10906 10910 10913 10917 10923 10928 10933 10936 10940 10945 10949 10954 10958 10961 10963 10966 10968 10971 10974 10977 10978 10981 10985 10989 10993 10996 10997 11000 11003 11006 11008 11009
10708 10703 10698 10692 10685 10679 10672 10666 10659 10653 10649 10646 10644 10642 10642 10644 10647 10651 10656 10662 10668 10675 10683 10690 10697 10705 10713 10721 10729 10737 10744 10752 10760 10767 10775 10782 10789 10797 10803 10809 10815 10819 10824 10829 10834 10840 10846 10852 10858 10864 10870 10875 10880 10884 10889 10894 10899 10903 10906 10910 10916 10923 10928 10932 10936 10940 10945 10951 10954 10956 10958 10961 10963 10966 10969 10971 10973 10977 10981 10985 10988 10992 10994 10997 11000 11004 11006 11007
10701 10695 10689 10682 10676 10668 10661 10654 10648 10641 10637 10634 10632 10632 10632 10634 10637 10641 10646 10652 10658 10666 10672 10679 10687 10697 10706 10714 10722 10729 10736 10744 10751 10759 10767 10773 10780 10788 10794 10800 10806 10812 10816 10822 10827 10832 10837 10844 10852 10859 10865 10870 10873 10877 10881 10886 10891 10894 10897 10904 10912 10918 10923 10928 10932 10936 10941 10946 10948 10949 10952 10955 10958 10961 10964 10966 10969 10973 10977 10981 10985 10989 10992 10995 10997 11001 11003 11004
10694 10688 10681 10674 10666 10659 10651 10644 10637 10631 10626 10624 10623 10623 10623 10625 10628 10633 10638 10643 10650 10657 10663 10671 10679 10689 10697 10704 10712 10720 10728 10736 10744 10751 10758 10765 10772 10779 10786 10792 10799 10804 10809 10814 10819 10823 10829 10838 10847 10853 10858 10862 10865 10869 10874 10879 10882 10885 10892 10900 10907 10913 10919 10924 10928 10932 10937 10941 10942 10943 10945 10949 10952 10956 10960 10963 10967 10971 10976 10980 10985 10988 10991 10993 10995 10998 11001 11002
10688 10681 10673 10666 10658 10650 10642 10634 10627 10621 10617 10615 10614 10615 10616 10618 10620 10625 10630 10635 10642 10649 10655 10663 10672 10680 10687 10694 10704 10714 10720 10728 10737 10744 10750 10757 10764 10771 10778 10784 10791 10796 10800 10805 10811 10815 10822 10832 10841 10845 10849 10854 10857 10862 10869 10872 10874 10880 10888 10895 10901 10907 10913 10918 10922 10926 10931 10934 10935 10936 10939 10943 10947 10952 10956 10961 10966 10971 10975 10978 10981 10984 10988 10991 10993 10996 10998 11000
10681 10674 10666 10659 10651 10643 10634 10625 10619 10614 10610 10608 10607 10608 10609 10611 10614 10618 10622 10627 10635 10642 10648 10656 10664 10671 10679 10688 10698 10706 10711 10719 10727 10734 10741 10748 10755 10762 10769 10775 10781 10786 10790 10797 10803 10807 10815 10825 10832 10836 10841 10846 10851 10857 10863 10864 10868 10876 10882 10888 10895 10901 10906 10910 10915 10919 10924 10928 10928 10930 10933 10937 10943 10947 10951 10957 10962 10967 10970 10972 10975 10978 10982 10987 10990 10993 10996 10998
10675 10668 10660 10652 10644 10636 10626 10618 10612 10607 10604 10601 10601 10602 10603 10605 10607 10611 10615 10621 10628 10635 10642 10649 10655 10662 10672 10681 10689 10695 10702 10710 10718 10725 10733 10740 10746 10753 10761 10767 10772 10777 10782 10789 10795 10799 10807 10816 10822 10828 10833 10838 10844 10852 10855 10857 10863 10871 10876 10881 10888 10894 10900 10905 10909 10914 10919 10921 10922 10924 10927 10932 10938 10943 10947 10952 10956 10961 10964 10966 10969 10972 10976 10981 10985 10988 10991 10994
10669 10661 10654 10646 10637 10628 10619 10611 10605 10601 10598 10596 10595 10596 10597 10599 10602 10606 10611 10617 10623 10629 10635 10641 10647 10655 10664 10671 10678 10685 10692 10700 10708 10716 10723 10730 10737 10744 10751 10758 10764 10769 10774 10782 10787 10791 10799 10807 10813 10819 10825 10830 10837 10844 10847 10850 10857 10865 10870 10875 10881 10888 10895 10901 10905 10909 10913 10914 10916 10919 10921 10926 10935 10939 10941 10946 10951 10955 10958 10961 10964 10967 10971 10975 10979 10982 10985 10988
10663 10656 10649 10641 10631 10622 10613 10606 10600 10596 10593 10591 10590 10591 10592 10594 10597 10601 10606 10611 10616 10622 10627 10633 10640 10648 10655 10661 10668 10675 10682 10689 10697 10705 10713 10720 10727 10734 10741 10748 10754 10759 10766 10773 10778 10784 10791 10798 10804 10810 10817 10823 10830 10836 10839 10843 10850 10858 10863 10868 10874 10881 10888 10895 10900 10904 10906 10906 10909 10913 10915 10921 10930 10934 10936 10941 10946 10949 10952 10955 10959 10962 10966 10970 10974 10977 10980 10982
10659 10651 10643 10635 10626 10617 10609 10602 10596 10592 10589 10587 10586 10586 10587 10589 10592 10596 10601 10606 10611 10616 10621 10626 10633 10640 10646 10652 10659 10666 10672 10679 10687 10695 10703 10710 10717 10724 10731 10738 10743 10750 10758 10764 10770 10776 10782 10788 10795 10802 10809 10815 10822 10828 10831 10836 10843 10850 10856 10860 10867 10874 10881 10887 10892 10896 10898 10898 10901 10907 10910 10916 10925 10929 10932 10936 10940 10943 10946 10950 10954 10957 10961 10965 10969 10972 10975 10978
10654 10647 10639 10631 10622 10613 10605 10598 10592 10588 10585 10583 10582 10582 10583 10585 10588 10592 10597 10602 10607 10612 10616 10621 10626 10632 10638 10644 10650 10657 10663 10670 10678 10686 10693 10700 10707 10715 10722 10728 10734 10741 10749 10756 10762 10768 10774 10780 10787 10794 10801 10807 10813 10819 10823 10828 10834 10841 10848 10853 10859 10866 10873 10879 10884 10888 10891 10892 10895 10901 10906 10911 10918 10923 10927 10932 10937 10939 10941 10945 10949 10952 10956 10960 10963 10967 10970 10974
10649 10643 10636 10628 10618 10609 10601 10595 10589 10584 10582 10580 10579 10579 10579 10581 10584 10588 10592 10597 10602 10607 10612 10616 10620 10626 10631 10637 10642 10648 10655 10661 10669 10676 10683 10690 10697 10705 10712 10718 10724 10731 10739 10747 10755 10761 10766 10772 10779 10786 10792 10798 10804 10810 10815 10820 10825 10832 10840 10846 10852 10859 10865 10871 10876 10881 10885 10888 10892 10897 10903 10907 10911 10916 10923 10928 10933 10935 10937 10940 10943 10947 10951 10954 10957 10961 10965 10969
10644 10638 10632 10625 10616 10606 10598 10592 10586 10581 10579 10577 10576 10575 10576 10578 10580 10583 10587 10591 10596 10601 10606 10611 10615 10620 10625 10630 10635 10640 10646 10653 10660 10667 10673 10680 10687 10694 10701 10708 10714 10721 10730 10738 10746 10752 10757 10763 10769 10776 10783 10789 10795 10802 10808 10813 10817 10824 10832 10838 10844 10851 10857 10863 10869 10874 10879 10884 10888 10893 10898 10902 10904 10911 10918 10923 10928 10931 10932 10935 10938 10942 10945 10948 10952 10956 10960 10964
10640 10634 10628 10622 10615 10606 10596 10589 10584 10579 10576 10574 10573 10573 10573 10574 10577 10580 10583 10586 10590 10595 10600 10605 10609 10614 10618 10623 10628 10633 10639 10645 10651 10657 10664 10671 10678 10685 10692 10698 10704 10711 10719 10728 10736 10742 10748 10753 10760 10767 10773 10779 10786 10792 10798 10804 10810 10816 10823 10830 10836 10842 10849 10855 10861 10868 10873 10878 10883 10888 10893 10897 10900 10905 10911 10916 10921 10926 10928 10930 10933 10936 10939 10942 10946 10950 10954 10958
10636 10630 10625 10618 10612 10604 10595 10587 10582 10577 10574 10572 10570 10570 10570 10571 10573 10576 10579 10582 10586 10590 10595 10599 10604 10608 10612 10617 10622 10628 10634 10639 10644 10650 10656 10662 10669 10675 10682 10688 10694 10701 10709 10718 10726 10732 10738 10744 10751 10758 10764 10771 10777 10783 10789 10796 10802 10807 10814 10821 10828 10834 10840 10847 10854 10860 10866 10872 10878 10883 10887 10892 10896 10899 10903 10909 10915 10920 10923 10924 10927 10931 10934 10937 10940 10944 10948 10952
10634 10628 10622 10616 10609 10601 10593 10585 10579 10575 10572 10570 10568 10567 10567 10568 10570 10572 10575 10578 10582 10586 10590 10595 10599 10603 10608 10613 10617 10623 10628 10634 10639 10645 10650 10656 10662 10668 10674 10680 10686 10692 10699 10707 10715 10723 10729 10735 10743 10749 10755 10762 10768 10773 10781 10789 10795 10799 10806 10813 10819 10826 10832 10839 10845 10852 10859 10865 10871 10876 10880 10887 10892 10893 10896 10902 10908 10913 10917 10919 10922 10926 10928 10931 10934 10938 10942 10946
10633 10626 10619 10614 10608 10600 10592 10584 10578 10573 10570 10568 10566 10565 10564 10565 10567 10568 10571 10574 10577 10581 10585 10589 10594 10598 10603 10607 10612 10617 10622 10627 10633 10638 10644 10650 10656 10662 10668 10674 10679 10685 10691 10698 10706 10714 10720 10727 10735 10742 10748 10754 10760 10766 10774 10781 10787 10792 10798 10804 10810 10817 10824 10830 10836 10844 10852 10858 10864 10869 10875 10881 10885 10886 10889 10895 10900 10906 10911 10914 10916 10920 10923 10925 10928 10932 10935 10939
10631 10625 10618 10611 10605 10599 10591 10583 10577 10572 10568 10566 10564 10562 10562 10562 10564 10565 10567 10570 10573 10577 10580 10584 10588 10593 10597 10601 10605 10611 10616 10621 10626 10631 10637 10643 10649 10655 10661 10668 10673 10679 10685 10692 10699 10707 10714 10721 10728 10735 10741 10747 10754 10760 10767 10773 10780 10785 10790 10796 10802 10808 10815 10821 10828 10836 10843 10850 10856 10862 10867 10874 10878 10880 10883 10887 10893 10899 10905 10908 10911 10914 10917 10919 10922 10926 10929 10933
10630 10623 10616 10609 10602 10596 10589 10582 10576 10571 10567 10564 10562 10560 10559 10559 10560 10562 10564 10566 10569 10572 10576 10580 10584 10588 10591 10595 10600 10605 10609 10614 10619 10624 10629 10635 10641 10648 10654 10661 10667 10673 10679 10686 10694 10702 10709 10716 10722 10729 10735 10741 10748 10754 10759 10766 10773 10778 10783 10789 10794 10799 10806 10813 10819 10827 10833 10840 10847 10853 10859 10866 10872 10875 10877 10880 10886 10892 10897 10901 10905 10908 10911 10913 10916 10920 10923 10927
10627 10622 10616 10609 10602 10595 10588 10581 10575 10570 10566 10563 10561 10558 10557 10557 10558 10559 10561 10563 10565 10569 10572 10575 10579 10582 10586 10590 10594 10599 10603 10608 10612 10617 10622 10628 10634 10640 10646 10653 10660 10666 10673 10680 10687 10695 10703 10709 10715 10722 10729 10735 10741 10747 10752 10758 10765 10770 10775 10781 10785 10791 10797 10804 10810 10817 10824 10832 10838 10843 10851 10859 10864 10868 10872 10873 10877 10883 10890 10894 10898 10902 10905 10907 10910 10914 10917 10921
10624 10619 10615 10609 10603 10596 10589 10582 10575 10570 10566 10562 10560 10557 10556 10555 10555 10556 10558 10559 10562 10564 10568 10571 10574 10578 10581 10585 10589 10593 10597 10601 10606 10611 10615 10620 10626 10632 10638 10645 10651 10658 10664 10671 10679 10687 10694 10700 10707 10714 10721 10728 10734 10739 10745 10750 10755 10761 10766 10772 10777 10782 10788 10794 10800 10807 10814 10821 10827 10832 10842 10851 10855 10860 10865 10867 10869 10874 10880 10886 10891 10895 10899 10902 10904 10908 10911 10915
10621 10616 10612 10608 10603 10597 10590 10583 10576 10570 10565 10562 10559 10556 10555 10553 10553 10554 10555 10556 10558 10561 10563 10567 10570 10573 10577 10580 10584 10587 10591 10595 10600 10605 10609 10613 10619 10624 10629 10636 10642 10647 10653 10660 10666 10674 10682 10689 10696 10703 10710 10718 10724 10730 10735 10740 10745 10751 10757 10762 10768 10773 10779 10784 10790 10796 10804 10810 10815 10823 10835 10843 10846 10851 10857 10861 10863 10865 10871 10878 10883 10887 10892 10895 10898 10901 10905 10909
10618 10613 10608 10604 10600 10595 10590 10583 10577 10570 10565 10562 10559 10556 10554 10552 10551 10551 10552 10553 10555 10557 10560 10562 10565 10568 10571 10575 10579 10582 10586 10590 10594 10598 10603 10607 10611 10616 10621 10627 10632 10637 10643 10649 10654 10661 10669 10676 10684 10691 10699 10706 10713 10719 10725 10730 10736 10741 10747 10752 10758 10763 10769 10774 10779 10786 10793 10798 10804 10815 10826 10833 10836 10842 10848 10854 10857 10858 10861 10868 10875 10880 10884 10889 10892 10895 10900 10904
10615 10611 10606 10601 10597 10593 10588 10583 10577 10571 10566 10562 10558 10556 10554 10552 10550 10549 10549 10550 10551 10553 10555 10558 10560 10563 10566 10569 10573 10576 10580 10584 10589 10593 10597 10601 10605 10610 10615 10619 10624 10629 10634 10639 10645 10651 10658 10665 10672 10680 10687 10694 10701 10707 10713 10719 10725 10730 10735 10741 10747 10753 10758 10764 10769 10775 10781 10786 10794 10805 10816 10822 10827 10832 10839 10845 10850 10852 10854 10858 10866 10872 10876 10881 10886 10889 10893 10897
10612 10608 10604 10599 10595 10591 10586 10581 10576 10571 10566 10562 10558 10556 10553 10551 10549 10548 10547 10548 10549 10550 10551 10553 10556 10558 10561 10565 10568 10571 10575 10579 10583 10587 10592 10595 10599 10603 10608 10612 10616 10621 10626 10631 10636 10641 10648 10655 10662 10669 10676 10682 10689 10695 10702 10708 10713 10719 10724 10730 10736 10742 10748 10753 10759 10765 10770 10776 10784 10794 10804 10812 10817 10822 10829 10835 10840 10845 10847 10849 10855 10862 10868 10873 10878 10882 10886 10890
10610 10607 10602 10598 10594 10589 10584 10580 10575 10570 10566 10562 10558 10556 10553 10551 10549 10547 10546 10546 10546 10547 10548 10550 10552 10554 10557 10560 10563 10566 10570 10574 10577 10581 10585 10589 10593 10596 10600 10604 10609 10614 10618 10622 10626 10632 10638 10645 10652 10659 10666 10672 10678 10684 10690 10696 10701 10708 10713 10719 10725 10731 10737 10743 10749 10755 10760 10767 10774 10781 10791 10801 10807 10812 10818 10825 10831 10837 10841 10843 10846 10852 10859 10865 10870 10875 10879 10883
10609 10605 10601 10597 10592 10588 10583 10578 10574 10569 10565 10562 10559 10556 10553 10551 10548 10547 10545 10544 10544 10544 10545 10546 10548 10550 10553 10555 10558 10561 10564 10568 10571 10574 10578 10582 10585 10589 10593 10597 10601 10606 10611 10615 10618 10623 10629 10634 10641 10647 10655 10661 10667 10674 10679 10684 10690 10696 10703 10708 10714 10720 10726 10731 10738 10745 10751 10757 10763 10769 10779 10790 10797 10802 10808 10815 10821 10827 10833 10837 10839 10843 10849 10856 10861 10866 10871 10876
10608 10603 10599 10594 10590 10586 10582 10577 10573 10568 10565 10561 10559 10556 10554 10551 10549 10547 10545 10544 10543 10543 10543 10544 10545 10547 10549 10551 10553 10556 10559 10562 10565 10568 10571 10575 10578 10582 10586 10589 10594 10598 10602 10606 10610 10615 10620 10625 10630 10636 10643 10650 10657 10663 10668 10674 10680 10685 10691 10697 10702 10708 10713 10720 10727 10734 10741 10746 10752 10758 10768 10778 10786 10791 10798 10805 10811 10817 10824 10829 10832 10835 10839 10846 10852 10858 10863 10867